Tracking 17884 objects as of 5-December-2016
HD Live streaming from Space Station
objects crossing your sky now

ASTRA 1D

Track ASTRA 1D now!
ASTRA 1D is classified as:


NORAD ID: 23331
Int'l Code: 1994-070A
Perigee: 35,854.3 km
Apogee: 35,885.9 km
Inclination: 7.3 °
Period: 1,440.0 minutes
Semi major axis: 42241 km
RCS: 75.2376 m2 (large)
Launch date: November 1, 1994
Source: Luxembourg (LUXE)
Launch site: FRENCH GUIANA (FRGUI)

Primarily backup for Astra 1B and 1C; 18 Ku-band transponders; continental Europe.
Your satellite tracking list
Your tracking list is empty





NASA's NSSDC Master Catalog

Two Line Element Set (TLE):
1 23331U 94070A   16339.18245407 -.00000278  00000-0  00000+0 0  9992
2 23331   7.2652  50.7269 0003738 207.5200 193.5744  1.00271885 81253
Source of the keplerian elements: AFSPC